Skip Page Navigation
NASA JPL Caltech
NASA Logo - Jet Propulsion Laboratory + View the NASA Portal
+ Near-Earth Object (NEO) Program
Search JPL
JPL Home Earth Solar System Stars & Galaxies Technology
JPL Solar System Dynamics
BODIES ORBITS EPHEMERIDES TOOLS PHYSICAL DATA DISCOVERY FAQ SITE MAP
JPL Small-Body Database Browser
Search: [ help ]  
(2005 UA1)
Classification: Apollo [NEO]          SPK-ID: 3295791
Ephemeris | Orbit Diagram | Orbital Elements | Physical Parameters | Close-Approach Data ]

[ hide orbit diagram ]
Orbit Diagram
Note: Make sure you have Java enabled on your browser to see the applet. This applet is provided as a 3D orbit visualization tool. The applet was implemented using 2-body methods, and hence should not be used for determining accurate long-term trajectories (over several years or decades) or planetary encounter circumstances. For accurate long-term ephemerides, please instead use our Horizons system.
Orbit Viewer

Additional Notes: the orbits shown in the applet are color coded. The planets are white lines, and the asteroid/comet is a blue line. The bright white line indicates the portion of the orbit that is above the ecliptic plane, and the darker portion is below the ecliptic plane. Likewise for the asteroid/comet orbit, the light blue indicates the portion above the ecliptic plane, and the dark blue the portion below the ecliptic plane.

Orbit Viewer applet originally written and kindly provided by Osamu Ajiki (AstroArts), and further modified by Ron Baalke (JPL).


Orbital Elements at Epoch 2456400.5 (2013-Apr-18.0) TDB
Reference: JPL 7 (heliocentric ecliptic J2000)
 Element Value Uncertainty (1-sigma)   Units 
e .6156880803902116 0.00088657  
a 2.119288779860162 0.0043592 AU
q .8144679391955451 0.00020361 AU
i .4332456781746532 0.00065687 deg
node 257.0074683681106 0.019028 deg
peri 71.82391453980229 0.015932 deg
M 166.1770200044166 2.7991 deg
tp 2455880.321855683904
(2011-Nov-14.82185568)
7.157 JED
period 1126.895475372091
3.09
3.4769
0.009519
d
yr
n .3194617494414299 0.00098566 deg/d
Q 3.424109620524779 0.0070431 AU
  Orbit Determination Parameters
   # obs. used (total)      33  
   data-arc span      19 days  
   first obs. used      2005-10-23  
   last obs. used      2005-11-11  
   planetary ephem.      DE405  
   SB-pert. ephem.      SB405-CPV-2  
   condition code      7  
   fit RMS      .55087  
   data source      ORB  
   producer      Otto Matic  
   solution date      2011-Sep-14 20:04:57  

Additional Information
 Earth MOID = .00135535 AU 
 T_jup = 3.461 
[ show covariance matrix ]

Ephemeris | Orbit Diagram | Orbital Elements | Physical Parameters | Close-Approach Data ]

Physical Parameter Table
Parameter Symbol Value Units Sigma Reference Notes
absolute magnitude H 26.353 mag .31734 7 autocmod 2.5a

[ show close-approach data ]
Ephemeris | Orbit Diagram | Orbital Elements | Physical Parameters | Close-Approach Data ]
ABOUT SSD CREDITS/AWARDS PRIVACY/COPYRIGHT GLOSSARY LINKS
FirstGov 2013-May-18 14:43 UT
(server date/time)  
NASA Home Page
Site Manager:   Donald K. Yeomans
Webmaster  Alan B. Chamberlin